STARLINK-2308

Last updated on Sat Apr 24 2021 00:02:02 GMT+0000 (Coordinated Universal Time)

1 47985U 21024J 21113.25001157 .00079374 00000-0 56579-3 0 9996 2 47985 53.0491 55.7072 0002315 19.6371 129.3729 15.73146192 1824

Satellite not in orbit

STARLINK-2308